sat.trackr.live / text

‹ back to catalog

STARLINK-1764

NORAD 46343 · 2020-062U

PAYLOAD ACTIVE UNKNOWN

§ Identity

Operator
Country
US
Launch date
2020-09-03
Launch site
AFETR
Launch vehicle
Mass (kg)
RCS (m²)

Purposes: comms

External: N2YO · Heavens-Above · Gunter

§ Orbital elements

Epoch: 2026-05-25T06:00:02.000160Z

Period
90.45 min
Inclination
53.0312°
Eccentricity
0.0007719
Mean motion
15.92081386 rev/d
Perigee alt
291.3 km
Apogee alt
301.6 km
Semi-major
6,674.6 km
B*
1.1500e-3
RAAN
294.2052°
Arg perigee
277.1221°
Mean anomaly
81.9490°
Rev number
602

§ Raw data

STARLINK-17641 46343U 20062U   26145.25002315  .00390201  69277-4  11500-2 0  99952 46343  53.0312 294.2052 0007719 277.1221  81.9490 15.92081386  6028

JSON: /api/v1/satellites/46343 · /tle

For live sub-satellite position, see the globe view (requires WebGL).

§ Visibility from observer

Set your observer location to see the next 7 days of passes ≥ 10°. The values pass through the URL so the page stays shareable.

No JS? Fill the form by hand. The geolocation button needs JavaScript.